This demonstration page uses our WeatherBlox Daily Observations layout. Learn more.

Left ArrowRight Arrow

Hourly Observations for October 23, 2021

Temp ( °F °C ) Dew Point ( °F °C ) Humidity (%) Winds ( mph kmh ) Pressure ( in mb ) Visibility ( mi km ) Precip ( " mm )
12:15 am 00:15 Cloudy 57 14 52 11 82 82 N N/A 29.98 1015 10 16 N/A
12:35 am 00:35 Cloudy 57 14 52 11 82 82 N N/A 29.98 1015 10 16 N/A
12:55 am 00:55 Cloudy 57 14 52 11 82 82 N N/A 29.97 1015 10 16 N/A
1:15 am 01:15 Cloudy 57 14 52 11 82 82 N N/A 29.97 1015 10 16 N/A
1:35 am 01:35 Cloudy 57 14 52 11 82 82 N N/A 29.97 1015 10 16 N/A
1:55 am 01:55 Cloudy 55 13 54 12 94 94 N N/A 29.97 1015 10 16 N/A
2:15 am 02:15 Cloudy 55 13 54 12 94 94 N N/A 29.96 1015 10 16 N/A
2:35 am 02:35 Cloudy 55 13 52 11 88 88 N N/A 29.96 1015 10 16 N/A
2:55 am 02:55 Cloudy 55 13 54 12 94 94 N N/A 29.97 1015 10 16 N/A
3:15 am 03:15 Cloudy 55 13 54 12 94 94 N N/A 29.97 1015 10 16 N/A
3:35 am 03:35 Cloudy 57 14 52 11 82 82 N 3 6 29.96 1015 10 16 N/A
3:55 am 03:55 Cloudy 55 13 52 11 88 88 NNW 3 6 29.96 1015 10 16 N/A
4:15 am 04:15 Cloudy 57 14 52 11 82 82 N N/A 29.96 1015 10 16 N/A
4:35 am 04:35 Cloudy 57 14 52 11 82 82 N N/A 29.96 1015 10 16 N/A
4:55 am 04:55 Cloudy 55 13 52 11 88 88 N N/A 29.97 1015 10 16 N/A
5:15 am 05:15 Cloudy 57 14 52 11 82 82 N N/A 29.97 1015 10 16 N/A
5:35 am 05:35 Cloudy 57 14 52 11 82 82 N N/A 29.98 1015 10 16 N/A
5:55 am 05:55 Cloudy 57 14 52 11 82 82 N N/A 29.98 1015 10 16 N/A
6:15 am 06:15 Cloudy 55 13 52 11 88 88 N N/A 29.98 1015 10 16 N/A
6:35 am 06:35 Cloudy 57 14 52 11 82 82 N N/A 29.98 1015 10 16 N/A
6:55 am 06:55 Cloudy 55 13 52 11 88 88 NNE 3 6 30.00 1016 10 16 N/A
7:15 am 07:15 Cloudy 55 13 52 11 88 88 N N/A 30.00 1016 10 16 N/A
7:35 am 07:35 Cloudy 55 13 52 11 88 88 N N/A 30.00 1016 10 16 N/A
7:55 am 07:55 Cloudy 55 13 52 11 88 88 N N/A 30.00 1016 10 16 N/A
8:15 am 08:15 Cloudy 55 13 52 11 88 88 N 3 6 30.01 1016 10 16 N/A
8:35 am 08:35 Cloudy 55 13 52 11 88 88 N N/A 30.02 1017 10 16 N/A
8:55 am 08:55 Cloudy 55 13 52 11 88 88 N N/A 30.02 1017 10 16 N/A
9:15 am 09:15 Cloudy 57 14 50 10 77 77 N N/A 30.02 1017 10 16 N/A
9:35 am 09:35 Cloudy 57 14 52 11 82 82 N N/A 30.03 1017 10 16 N/A
9:55 am 09:55 Mostly Cloudy 57 14 50 10 77 77 N N/A 30.03 1017 10 16 N/A
10:15 am 10:15 Mostly Cloudy 59 15 52 11 77 77 N N/A 30.03 1017 10 16 N/A
10:35 am 10:35 Cloudy 59 15 52 11 77 77 S 3 6 30.03 1017 10 16 N/A
10:55 am 10:55 Cloudy 61 16 52 11 72 72 S 3 6 30.03 1017 10 16 N/A
11:15 am 11:15 Mostly Cloudy 61 16 52 11 72 72 N N/A 30.03 1017 10 16 N/A
11:35 am 11:35 Cloudy 61 16 52 11 72 72 W 5 7 30.04 1017 10 16 N/A
11:55 am 11:55 Mostly Cloudy 61 16 52 11 72 72 SW 5 7 30.03 1017 10 16 N/A
12:15 pm 12:15 Mostly Cloudy 63 17 52 11 68 68 N N/A 30.01 1016 10 16 N/A
12:35 pm 12:35 Cloudy 64 18 52 11 64 64 SSW 7 11 30.00 1016 10 16 N/A
12:55 pm 12:55 Cloudy 63 17 54 12 73 73 SSW 6 9 30.00 1016 10 16 N/A
1:15 pm 13:15 Cloudy 63 17 52 11 68 68 SW 6 9 30.00 1016 10 16 N/A
1:35 pm 13:35 Cloudy 64 18 54 12 68 68 SW 6 9 29.97 1015 10 16 N/A
1:55 pm 13:55 Cloudy 63 17 52 11 68 68 WSW 6 9 29.98 1015 10 16 N/A
2:15 pm 14:15 Cloudy 64 18 54 12 68 68 SW 9 15 29.96 1015 10 16 N/A
2:35 pm 14:35 Cloudy 66 19 54 12 64 64 W 12 19 29.96 1015 10 16 N/A
2:55 pm 14:55 Cloudy 66 19 54 12 64 64 W 16 26 29.96 1015 10 16 N/A
3:15 pm 15:15 Partly Cloudy 66 19 50 10 56 56 W 16 26 29.97 1015 10 16 N/A
3:35 pm 15:35 Mostly Cloudy 66 19 50 10 56 56 W 13 20 29.97 1015 10 16 N/A
3:55 pm 15:55 Cloudy 64 18 46 8 52 52 W 15 24 29.97 1015 10 16 N/A
4:15 pm 16:15 Mostly Cloudy 64 18 46 8 52 52 NW 16 26 29.97 1015 10 16 N/A
4:35 pm 16:35 Partly Cloudy 64 18 46 8 52 52 WNW 15 24 29.97 1015 10 16 N/A
4:55 pm 16:55 Sunny 64 18 46 8 52 52 WNW 15 24 29.96 1015 10 16 N/A
5:15 pm 17:15 Sunny 63 17 48 9 59 59 NW 8 13 30.00 1016 10 16 N/A
5:35 pm 17:35 Sunny 63 17 48 9 59 59 NW 10 17 30.00 1016 10 16 N/A
5:55 pm 17:55 Sunny 61 16 46 8 59 59 WNW 12 19 30.02 1016 10 16 N/A
6:15 pm 18:15 Partly Cloudy 61 16 46 8 59 59 NW 8 13 30.03 1017 10 16 N/A
6:35 pm 18:35 Mostly Cloudy 59 15 46 8 63 63 NW 6 9 30.03 1017 10 16 N/A
6:55 pm 18:55 Mostly Cloudy 59 15 46 8 63 63 NNW 3 6 30.03 1017 10 16 N/A
7:15 pm 19:15 Mostly Cloudy 59 15 46 8 63 63 NNW 7 11 30.05 1018 10 16 N/A
7:55 pm 19:55 Partly Cloudy 57 14 48 9 72 72 N 8 13 30.05 1018 10 16 N/A
9:55 pm 21:55 Clear 55 13 46 8 72 72 N 3 6 30.09 1019 10 16 N/A
10:15 pm 22:15 Clear 54 12 46 8 77 77 N N/A 30.08 1019 10 16 N/A
10:35 pm 22:35 Partly Cloudy 54 12 46 8 77 77 N N/A 30.09 1019 10 16 N/A
11:15 pm 23:15 Clear 52 11 46 8 82 82 N N/A 30.09 1019 10 16 N/A
11:55 pm 23:55 Partly Cloudy 50 10 46 8 88 88 NNW 5 7 30.11 1020 10 16 N/A

Powered by AerisWeather